Wind_Speed
77 78 80 83 82 80 81 96 79 93 98 112 97 92 94 94 88 85 80 71 74 74 62 70 64 65 64 61 59 57 56 54 50 52 54 55 56 56 55 55 56 57 58 57
80 77 84 87 89 89 86 90 81 89 98 112 108 98 94 98 92 90 88 82 78 74 74 71 67 67 66 67 64 60 58 57 56 56 57 59 58 59 58 62 61 62 60 61
79 78 83 85 89 89 84 79 83 88 100 102 115 109 105 103 93 97 95 91 83 82 80 74 72 73 71 71 72 68 62 62 60 59 63 62 64 64 67 68 63 62 63 65
73 79 81 83 79 80 82 83 89 90 105 99 106 112 114 104 100 98 100 95 88 79 79 75 77 74 74 75 73 70 68 67 68 66 68 68 67 65 68 66 66 67 66 70
65 73 76 76 77 78 75 81 84 92 106 100 98 105 110 107 106 98 97 101 96 92 83 82 83 79 77 75 75 73 71 66 70 69 68 71 68 72 67 66 73 79 79 77
65 73 73 73 78 79 82 83 91 98 108 104 93 100 94 108 101 101 98 97 96 92 91 85 83 82 77 77 80 80 79 76 73 77 78 77 79 76 75 77 77 76 79 84
63 65 65 65 74 80 85 92 95 99 99 98 93 100 98 101 110 103 102 99 97 94 91 95 95 89 87 84 78 73 74 71 66 78 80 76 79 80 80 79 79 82 86 88
57 55 55 59 65 73 83 91 96 98 98 95 91 97 100 96 108 110 107 102 99 94 92 89 92 92 84 84 84 78 80 83 82 84 80 79 79 78 83 85 86 87 87 89
48 47 47 53 58 64 78 89 94 99 95 98 90 88 98 97 102 114 108 103 97 94 93 89 88 87 86 80 82 82 82 78 77 77 76 79 83 83 83 83 88 88 92 96
40 40 41 50 50 64 74 85 94 98 99 87 83 88 91 95 98 107 111 106 99 99 96 95 92 92 92 91 88 88 87 86 85 82 79 82 85 85 83 82 85 89 93 96
34 34 40 45 53 66 77 93 94 93 89 93 94 84 81 91 92 95 103 101 98 101 98 95 95 94 92 91 91 89 88 86 87 90 87 84 82 82 84 88 89 93 95 96
30 35 41 50 61 73 83 86 86 94 85 87 82 78 71 81 90 87 91 101 98 103 102 99 97 94 90 88 87 83 83 83 86 88 89 87 92 92 91 92 94 97 102 105
29 36 47 56 65 73 96 81 74 75 78 86 84 74 68 67 72 80 83 96 97 93 94 97 98 93 88 87 86 85 84 86 87 89 90 92 94 95 96 97 98 103 106 108
30 39 51 63 76 87 89 83 83 78 73 72 79 78 68 69 68 62 74 78 87 87 86 85 85 86 85 87 88 87 87 87 89 92 93 97 98 96 97 99 103 104 109 113
32 42 56 72 84 84 88 90 84 80 80 80 77 69 64 59 67 62 58 67 74 78 85 91 89 86 83 85 86 88 87 89 91 93 94 100 100 98 102 105 109 114 121 117
35 48 57 73 93 91 76 75 77 77 84 87 75 63 64 61 54 60 68 56 62 74 78 79 86 92 92 90 90 91 93 96 97 95 93 97 105 110 111 112 114 115 120 118
37 47 64 75 93 94 93 83 81 76 69 81 77 65 62 67 63 61 55 61 65 67 64 70 75 81 89 91 93 96 92 91 94 97 103 108 112 112 112 112 115 118 120 122
38 52 78 86 88 80 82 91 88 89 83 76 73 71 67 65 66 66 64 61 67 71 69 70 75 79 82 83 82 87 91 94 101 103 101 102 105 108 113 114 114 115 120 121
38 54 77 91 94 97 97 87 85 79 79 83 84 82 74 69 64 65 60 66 71 74 75 77 79 82 83 83 84 88 93 94 95 99 102 105 106 110 112 114 116 120 124 128
39 53 69 95 94 96 91 94 91 86 82 85 82 78 78 72 69 62 71 74 76 75 78 81 81 80 81 85 89 92 93 94 96 98 103 107 110 110 113 117 119 124 126 132
39 52 69 84 100 101 99 92 93 88 83 85 87 79 79 78 72 68 72 69 71 76 83 82 83 85 86 88 91 94 96 98 101 106 107 108 111 115 117 122 127 131 135 142
38 48 64 78 87 98 97 96 92 93 89 83 83 78 79 75 72 69 65 80 75 74 76 72 80 85 90 91 93 94 97 99 104 108 112 116 119 123 125 127 131 135 140 138
36 46 60 85 87 89 90 90 95 97 94 89 84 84 82 85 73 64 68 68 68 70 75 79 83 85 86 90 93 97 101 108 114 116 111 116 120 123 130 136 135 123 113 104
29 39 50 62 80 95 94 95 88 87 94 97 98 96 85 75 81 86 81 84 75 78 78 81 87 93 98 100 101 105 108 108 113 116 121 124 129 122 115 108 100 89 82 75
19 27 38 48 59 70 80 86 92 97 89 87 81 89 87 84 83 81 87 90 85 86 90 96 101 102 106 110 113 115 116 120 123 119 111 104 98 91 81 72 67 69 74 80
12 18 25 35 44 54 68 74 88 87 88 97 92 89 92 96 100 99 93 93 94 95 98 104 110 114 113 111 116 119 110 96 87 82 77 71 61 57 60 66 72 77 81 85
Wind_Direction
266 263 262 259 255 244 244 236 240 234 234 233 233 226 229 230 229 226 228 228 230 234 240 247 248 250 249 250 252 256 264 272 269 268 270 272 272 273 274 276 278 279 279 282
264 262 260 257 254 246 245 236 241 234 227 231 231 227 228 229 229 229 229 229 232 236 239 246 243 246 250 253 259 259 261 267 268 275 279 270 271 273 276 281 279 278 280 284
265 265 261 258 256 248 245 239 238 231 227 227 227 226 220 225 228 229 230 231 235 237 241 243 246 246 250 258 253 255 259 264 264 273 271 277 275 279 282 278 278 280 281 282
269 264 259 256 254 250 247 241 237 228 224 229 229 226 221 227 225 227 229 231 234 237 241 236 241 246 250 254 254 256 260 264 269 267 273 274 277 280 282 277 277 281 284 283
266 259 255 252 248 244 234 232 233 229 227 229 231 231 224 224 224 226 230 231 236 236 240 237 239 243 248 251 255 256 258 262 265 269 275 275 276 276 275 274 277 279 280 280
264 260 253 247 240 234 228 223 223 225 226 228 232 231 230 226 226 226 230 231 236 236 237 237 240 245 249 252 253 255 257 263 265 265 270 272 274 274 273 275 277 281 282 282
271 263 255 243 236 230 224 220 216 219 223 223 226 227 227 225 223 223 227 230 234 235 239 240 243 246 248 250 253 256 262 261 267 267 270 275 276 273 270 274 280 282 282 282
272 262 255 242 233 227 218 217 214 211 215 219 219 223 223 224 224 223 225 228 232 232 237 241 244 246 249 251 254 255 257 260 264 268 271 273 271 269 276 282 284 281 280 281
271 260 247 235 226 219 213 211 211 211 213 214 217 220 222 221 222 226 224 229 231 234 235 234 237 241 244 249 250 253 258 262 267 272 272 270 271 276 280 282 283 281 280 282
263 251 236 228 217 207 205 205 207 210 212 212 218 221 223 220 221 223 226 227 231 234 236 233 237 241 244 248 253 257 260 263 267 267 271 271 271 275 275 278 279 283 284 286
257 238 227 216 203 202 197 197 205 209 207 208 210 214 220 224 223 225 225 225 228 233 235 238 239 243 247 250 253 256 258 260 261 264 268 270 272 276 277 281 282 284 286 286
249 232 213 200 198 195 187 192 203 203 204 209 205 210 215 223 226 225 225 224 227 233 236 239 241 242 245 249 251 251 255 258 261 264 266 268 271 276 278 280 281 282 283 285
236 223 207 194 195 196 186 189 198 199 206 211 209 214 219 224 229 231 229 226 228 231 234 239 241 244 245 248 249 251 253 257 260 264 265 269 272 274 275 280 280 281 282 286
227 215 204 192 190 186 180 183 190 189 193 201 206 210 215 217 224 228 233 232 231 231 233 237 239 240 243 248 251 254 255 257 260 263 268 270 274 275 275 278 280 281 286 287
220 211 202 191 185 185 185 190 193 197 201 202 205 210 217 225 228 231 228 230 233 234 236 238 238 240 244 247 249 252 255 258 261 265 267 269 274 275 278 279 283 285 288 289
211 208 202 192 186 184 181 191 197 203 206 206 209 213 213 218 225 236 233 227 230 237 237 242 245 245 248 248 250 253 256 260 265 269 270 272 274 276 279 281 284 286 287 288
208 201 198 189 186 193 190 194 195 192 199 204 207 209 215 217 215 221 229 221 222 227 235 244 250 253 254 255 258 260 262 264 267 270 272 272 273 276 279 282 282 283 284 285
204 195 193 186 184 184 191 198 204 208 205 200 205 206 207 212 222 226 227 225 227 231 233 236 240 247 252 255 255 257 261 263 266 269 272 274 275 277 278 280 281 281 283 285
202 197 192 192 194 196 194 197 202 206 206 209 211 215 219 218 223 227 221 225 229 234 238 241 245 247 251 253 255 260 265 268 270 271 273 273 275 276 278 280 281 282 285 288
203 199 195 195 197 195 195 203 203 206 206 208 210 213 216 223 222 230 235 236 231 233 235 239 242 242 246 252 258 259 261 264 266 269 270 271 273 277 279 280 283 284 287 289
204 202 199 199 201 203 202 204 208 206 210 211 212 217 223 224 224 233 239 240 246 243 239 242 243 247 250 254 257 259 262 266 266 267 271 273 275 278 281 283 285 287 289 290
206 205 202 204 202 204 205 205 206 208 209 214 215 219 222 228 231 235 242 241 245 252 252 250 251 254 259 261 262 263 264 265 265 267 270 274 276 281 283 285 286 287 289 292
206 205 203 203 203 206 204 210 210 212 214 216 222 223 229 232 235 232 230 229 232 240 246 253 257 261 263 267 271 272 273 272 271 274 277 279 281 283 285 287 289 291 292 292
208 207 206 207 210 212 215 214 219 220 219 224 222 226 230 232 236 238 246 245 244 248 250 258 258 262 267 270 271 273 275 274 276 280 280 281 285 287 288 289 291 291 292 293
204 207 208 209 212 215 217 219 222 219 219 220 221 228 229 233 238 245 248 248 248 250 256 260 263 268 272 276 278 278 279 280 282 283 284 285 287 288 289 290 290 291 293 295
170 192 203 207 213 216 218 221 219 222 223 224 226 228 233 235 239 243 248 254 258 261 262 264 268 272 276 277 277 279 281 281 284 285 286 287 286 285 287 291 294 295 295 294
Height
10571 10573 10578 10575 10578 10590 10594 10604 10615 10631 10636 10636 10664 10680 10690 10700 10707 10718 10729 10735 10741 10747 10753 10761 10767 10771 10773 10773 10777 10781 10785 10784 10785 10786 10786 10786 10785 10785 10783 10783 10781 10779 10776 10773
10546 10553 10547 10548 10551 10558 10569 10581 10595 10602 10613 10613 10638 10659 10670 10674 10691 10703 10712 10720 10728 10735 10743 10749 10754 10758 10761 10765 10768 10772 10776 10776 10777 10778 10778 10777 10776 10775 10774 10772 10770 10768 10765 10761
10521 10523 10516 10520 10520 10529 10542 10556 10568 10582 10587 10589 10605 10627 10641 10653 10671 10686 10695 10705 10714 10724 10733 10739 10744 10747 10752 10755 10758 10761 10765 10766 10767 10767 10768 10768 10768 10766 10763 10760 10758 10756 10753 10749
10495 10486 10485 10485 10491 10501 10515 10535 10541 10558 10561 10572 10581 10602 10618 10636 10655 10666 10677 10691 10704 10712 10720 10725 10731 10734 10739 10743 10747 10751 10753 10754 10756 10756 10757 10757 10756 10754 10752 10750 10746 10744 10740 10734
10462 10453 10454 10462 10470 10472 10493 10504 10519 10530 10537 10554 10565 10575 10610 10615 10632 10652 10666 10678 10690 10701 10707 10713 10717 10721 10727 10731 10735 10739 10742 10743 10744 10745 10746 10745 10743 10742 10739 10736 10734 10730 10725 10719
10430 10422 10426 10432 10438 10447 10461 10476 10488 10499 10513 10533 10555 10557 10586 10603 10631 10639 10651 10664 10677 10686 10695 10699 10702 10708 10713 10718 10722 10727 10730 10732 10731 10730 10731 10729 10729 10726 10724 10721 10719 10715 10712 10703
10399 10394 10396 10407 10409 10418 10434 10448 10462 10477 10491 10518 10530 10538 10569 10588 10601 10624 10634 10648 10660 10671 10679 10683 10688 10693 10699 10704 10710 10715 10719 10723 10709 10714 10716 10717 10713 10709 10708 10703 10706 10703 10698 10690
10373 10372 10372 10376 10384 10399 10413 10429 10449 10461 10471 10495 10511 10520 10550 10573 10587 10599 10614 10630 10642 10653 10664 10669 10673 10680 10686 10692 10699 10702 10705 10708 10703 10702 10704 10701 10695 10696 10690 10692 10688 10686 10681 10675
10353 10351 10353 10356 10366 10384 10401 10413 10433 10448 10457 10478 10494 10513 10529 10553 10567 10578 10604 10617 10629 10641 10650 10656 10662 10667 10674 10679 10686 10688 10690 10692 10690 10686 10687 10685 10679 10681 10678 10676 10672 10668 10664 10659
10336 10334 10340 10343 10359 10370 10389 10405 10415 10433 10448 10472 10485 10500 10513 10536 10553 10567 10585 10604 10616 10626 10635 10642 10649 10655 10662 10668 10671 10672 10675 10675 10674 10669 10670 10667 10666 10667 10663 10660 10656 10651 10647 10641
10322 10325 10329 10337 10350 10363 10379 10389 10405 10426 10441 10457 10470 10490 10509 10526 10541 10553 10570 10588 10599 10609 10618 10629 10638 10643 10648 10651 10655 10656 10657 10658 10656 10654 10655 10653 10651 10648 10645 10641 10637 10633 10628 10621
10311 10316 10322 10329 10339 10354 10369 10387 10403 10419 10437 10453 10470 10490 10505 10515 10528 10542 10555 10572 10585 10596 10606 10615 10622 10627 10632 10635 10637 10637 10640 10641 10636 10640 10639 10637 10635 10632 10629 10626 10620 10615 10610 10604
10303 10310 10315 10323 10332 10349 10363 10384 10401 10418 10435 10450 10470 10484 10494 10505 10518 10531 10544 10559 10573 10584 10590 10598 10605 10612 10617 10619 10618 10622 10622 10624 10624 10623 10623 10621 10620 10617 10613 10609 10603 10597 10590 10585
10297 10304 10311 10318 10328 10344 10366 10381 10397 10414 10430 10446 10461 10478 10488 10498 10510 10521 10534 10548 10559 10567 10574 10583 10591 10596 10601 10602 10604 10606 10607 10608 10606 10607 10606 10605 10604 10600 10596 10589 10583 10577 10570 10563
10291 10300 10308 10315 10331 10346 10365 10378 10393 10411 10423 10439 10456 10471 10484 10492 10500 10513 10524 10536 10545 10551 10557 10565 10573 10580 10585 10588 10588 10590 10591 10592 10591 10591 10589 10588 10586 10581 10575 10568 10562 10555 10548 10539
10286 10292 10306 10319 10330 10345 10361 10375 10388 10403 10418 10435 10452 10463 10477 10486 10494 10500 10511 10524 10534 10540 10546 10551 10558 10564 10568 10572 10575 10576 10577 10577 10576 10574 10572 10570 10565 10560 10554 10548 10542 10533 10526 10516
10284 10294 10303 10315 10331 10344 10359 10370 10385 10399 10414 10427 10442 10455 10467 10477 10484 10493 10503 10515 10521 10529 10535 10539 10544 10549 10554 10558 10561 10562 10561 10560 10560 10557 10555 10551 10546 10540 10533 10527 10520 10512 10503 10492
10284 10294 10305 10315 10328 10344 10355 10367 10380 10393 10408 10421 10436 10447 10457 10466 10474 10485 10496 10503 10510 10516 10522 10528 10531 10535 10539 10543 10544 10545 10545 10543 10541 10539 10536 10530 10525 10519 10514 10507 10499 10489 10478 10468
10282 10292 10304 10313 10328 10338 10351 10361 10374 10388 10403 10416 10427 10439 10448 10457 10466 10476 10484 10492 10498 10503 10509 10514 10520 10524 10526 10527 10528 10528 10527 10527 10524 10522 10517 10511 10506 10498 10493 10484 10475 10463 10454 10444
10280 10289 10299 10311 10321 10334 10344 10355 10367 10380 10394 10407 10419 10431 10442 10450 10460 10466 10470 10478 10485 10490 10496 10500 10505 10508 10510 10512 10511 10511 10510 10508 10505 10502 10497 10491 10482 10474 10468 10459 10449 10440 10429 10416
10275 10285 10295 10304 10315 10326 10337 10351 10359 10378 10390 10400 10411 10421 10432 10442 10449 10456 10461 10467 10473 10480 10485 10489 10491 10493 10495 10494 10494 10493 10492 10489 10486 10479 10474 10468 10458 10449 10442 10434 10424 10412 10400 10388
10269 10277 10287 10297 10310 10323 10336 10347 10360 10372 10381 10391 10403 10413 10423 10432 10440 10445 10451 10456 10462 10466 10470 10473 10476 10478 10480 10481 10478 10475 10471 10469 10462 10458 10451 10442 10434 10426 10419 10407 10398 10386 10374 10362
10268 10274 10284 10295 10306 10317 10331 10343 10356 10366 10376 10385 10395 10406 10414 10423 10429 10436 10438 10443 10447 10450 10455 10459 10460 10461 10460 10459 10459 10456 10453 10448 10441 10436 10428 10420 10411 10401 10390 10379 10369 10356 10343 10333
10266 10273 10282 10294 10307 10318 10329 10341 10351 10364 10373 10381 10390 10398 10408 10415 10422 10425 10430 10435 10439 10443 10446 10444 10445 10444 10443 10440 10438 10435 10429 10424 10417 10410 10400 10391 10383 10372 10362 10352 10342 10332 10323 10314
10267 10274 10283 10294 10305 10316 10325 10336 10347 10357 10366 10375 10383 10393 10402 10408 10413 10417 10420 10426 10428 10430 10432 10431 10429 10427 10424 10422 10416 10409 10403 10397 10389 10382 10373 10365 10357 10348 10339 10331 10323 10315 10306 10296
10270 10276 10284 10294 10303 10313 10323 10330 10339 10351 10362 10372 10379 10386 10394 10399 10403 10407 10411 10416 10419 10418 10416 10415 10414 10411 10405 10399 10393 10386 10379 10373 10367 10360 10352 10346 10338 10331 10324 10316 10307 10298 10286 10275